EW0482 Weather Reports


Display with metric or nautical units.
time (UTC)temp
F
wind
direction
speed
MPH
gust
MPH
rain 1hr
in
rain 24hr
in
rain mn
in
humidity
%
barometer
mb
20260509091521 61 249 0.0 0.0 0.00 0.00 0.00 13 1002.7
20260509090022 61 249 0.0 0.0 0.00 0.00 0.00 15 1002.8
20260509084525 60 250 0.0 0.0 0.00 0.00 0.00 16 1002.9
20260509083021 60 250 0.0 0.0 0.00 0.00 0.00 17 1003.0
20260509081529 60 250 0.0 0.0 0.00 0.00 0.00 19 1003.1
20260509080027 60 250 0.0 0.0 0.00 0.00 0.00 20 1003.3
20260509074514 60 250 0.0 0.0 0.00 0.00 0.00 20 1003.4
20260509073013 60 250 0.0 0.0 0.00 0.00 0.00 20 1003.4
20260509071511 60 250 0.0 0.0 0.00 0.00 0.00 24 1003.4
20260509070009 61 250 0.0 0.0 0.00 0.00 0.00 14 1003.5
20260509064508 60 250 0.0 0.0 0.00 0.00 0.00 20 1003.6
20260509063100 60 250 0.0 0.0 0.00 0.00 0.00 16 1003.6
20260509061556 60 250 0.0 0.0 0.00 0.00 0.00 22 1003.5
20260509060053 60 250 0.0 1.0 0.00 0.00 0.00 29 1003.7
20260509054552 61 249 0.0 0.0 0.00 0.00 0.00 24 1003.7
20260509053046 61 249 0.0 0.0 0.00 0.00 0.00 27 1003.7
20260509051542 61 249 0.0 0.0 0.00 0.00 0.00 29 1003.6
20260509050040 61 250 0.0 0.0 0.00 0.00 0.00 24 1003.6
20260509044532 60 249 0.0 0.0 0.00 0.00 0.00 24 1003.5
20260509043027 60 250 0.0 0.0 0.00 0.00 0.00 24 1003.4
20260509041523 60 250 0.0 0.0 0.00 0.00 0.00 24 1003.3
20260509040018 60 250 0.0 2.0 0.00 0.00 0.00 28 1003.3
20260509034514 61 247 0.0 0.0 0.00 0.00 0.00 31 1003.2
20260509033009 61 247 0.0 3.0 0.00 0.00 0.00 34 1003.0
20260509031505 61 248 0.0 0.0 0.00 0.00 0.00 38 1002.8
20260509030101 61 248 0.0 1.0 0.00 0.00 0.00 40 1002.6
20260509024556 61 249 0.0 2.0 0.00 0.00 0.00 42 1002.6
20260509023053 62 248 0.0 3.0 0.00 0.00 0.00 46 1002.5
20260509021548 62 248 0.0 4.0 0.00 0.00 0.00 48 1002.5
20260509020042 62 245 0.0 2.0 0.00 0.00 0.00 49 1002.4
20260509014544 62 250 0.0 5.0 0.00 0.00 0.00 57 1002.3
20260509013041 63 261 0.0 5.0 0.00 0.00 0.00 62 1002.4
20260509011533 64 251 0.0 3.0 0.00 0.00 0.00 63 1002.4
20260509010026 64 246 0.0 6.0 0.00 0.00 0.00 67 1002.3
20260509004524 65 258 0.0 3.0 0.00 0.00 0.00 69 1002.4
20260509003028 65 247 0.0 8.0 0.00 0.00 0.00 71 1002.4
20260509001514 66 242 1.0 7.0 0.00 0.00 0.00 72 1002.4
20260509000009 67 284 2.0 7.0 0.00 0.00 0.00 73 1002.4
20260508234504 69 262 2.0 9.0 0.00 0.00 0.00 73 1002.4
20260508233134 70 243 0.0 5.0 0.00 0.00 0.00 72 1002.4
20260508231558 70 237 1.0 6.0 0.00 0.00 0.00 72 1002.6
20260508230056 70 246 1.0 7.0 0.00 0.00 0.00 72 1002.7
20260508224551 70 248 2.0 7.0 0.00 0.00 0.00 72 1002.9
20260508223043 70 246 0.0 6.0 0.00 0.00 0.00 72 1003.1
20260508221538 70 251 0.0 5.0 0.00 0.00 0.00 71 1003.2
20260508220035 70 223 0.0 8.0 0.00 0.00 0.00 72 1003.4
20260508214530 71 259 0.0 6.0 0.00 0.00 0.00 71 1003.6
20260508213026 71 227 0.0 6.0 0.00 0.00 0.00 72 1003.8
20260508211529 70 251 3.0 7.0 0.00 0.00 0.00 72 1003.8
20260508210015 70 250 2.0 7.0 0.00 0.00 0.00 72 1004.0
20260508204512 70 252 0.0 7.0 0.00 0.00 0.00 72 1004.1
20260508203008 71 254 0.0 3.0 0.00 0.00 0.00 72 1004.2
20260508201504 71 238 0.0 6.0 0.00 0.00 0.00 72 1004.3
20260508200111 70 252 0.0 5.0 0.00 0.00 0.00 72 1004.4
20260508194602 70 260 1.0 5.0 0.00 0.00 0.00 72 1004.5
20260508193050 69 264 0.0 6.0 0.00 0.00 0.00 72 1004.7
20260508191552 68 239 0.0 3.0 0.00 0.00 0.00 71 1004.8
20260508190041 67 252 0.0 4.0 0.00 0.00 0.00 68 1005.0
20260508184537 67 249 0.0 1.0 0.00 0.00 0.00 69 1005.2
20260508183033 67 252 0.0 1.0 0.00 0.00 0.00 70 1005.2
20260508181529 67 254 0.0 0.0 0.00 0.00 0.00 69 1005.2
20260508180024 66 254 1.0 3.0 0.00 0.00 0.00 69 1005.4
20260508174526 65 242 0.0 1.0 0.00 0.00 0.00 65 1005.5
20260508173015 65 243 0.0 1.0 0.00 0.00 0.00 61 1005.6
20260508171522 64 242 0.0 0.0 0.00 0.00 0.00 59 1005.7
20260508170006 64 242 0.0 0.0 0.00 0.00 0.00 57 1005.5
20260508164502 63 242 0.0 1.0 0.00 0.00 0.00 56 1005.4
20260508163100 63 242 0.0 1.0 0.00 0.00 0.00 52 1005.4
20260508161552 63 242 0.0 1.0 0.00 0.00 0.00 49 1005.4
20260508160052 62 315 0.0 1.0 0.00 0.00 0.00 42 1005.4
20260508154549 62 57 0.0 2.0 0.00 0.00 0.00 39 1005.4
20260508153040 62 65 0.0 4.0 0.00 0.00 0.00 36 1005.4
20260508151536 61 48 0.0 1.0 0.00 0.00 0.00 30 1005.5
20260508150031 61 48 0.0 2.0 0.00 0.00 0.00 29 1005.5
20260508144526 61 48 0.0 0.0 0.00 0.00 0.00 27 1005.5
20260508143022 61 48 0.0 0.0 0.00 0.00 0.00 27 1005.7
20260508141520 61 48 0.0 1.0 0.00 0.00 0.00 27 1005.5
20260508140019 60 46 0.0 0.0 0.00 0.00 0.00 27 1005.4
20260508134509 60 46 0.0 0.0 0.00 0.00 0.00 27 1005.4
20260508133005 60 46 0.0 3.0 0.00 0.00 0.00 28 1005.2
20260508131601 60 61 0.0 4.0 0.00 0.00 0.00 32 1005.1
20260508130106 60 72 0.0 1.0 0.00 0.00 0.00 32 1005.0
20260508124554 60 72 0.0 1.0 0.00 0.00 0.00 34 1004.9
20260508123055 60 44 0.0 1.0 0.00 0.00 0.00 33 1004.7
20260508121545 60 44 0.0 2.0 0.00 0.00 0.00 32 1004.7
20260508120038 61 44 0.0 1.0 0.00 0.00 0.00 32 1004.7
20260508114542 61 44 0.0 2.0 0.00 0.00 0.00 33 1004.6
20260508113030 61 44 0.0 1.0 0.00 0.00 0.00 31 1004.5
20260508111525 61 44 0.0 0.0 0.00 0.00 0.00 28 1004.5
20260508110023 61 44 0.0 1.0 0.00 0.00 0.00 26 1004.4
20260508104516 61 42 0.0 0.0 0.00 0.00 0.00 24 1004.4
20260508103012 61 281 0.0 2.0 0.00 0.00 0.00 20 1004.4
20260508101514 61 279 0.0 2.0 0.00 0.00 0.00 14 1004.4
20260508100006 61 271 0.0 1.0 0.00 0.00 0.00 9 1004.5
20260508094606 61 269 0.0 0.0 0.00 0.00 0.00 4 1004.5
20260508093057 60 270 0.0 0.0 0.00 0.00 0.00 2 1004.5